User: anonymous
Location: Utrecht
(52.0830°N, 5.1330°E)
Time: 03:28:40
(UTC+02:00)
Language:

Cosmos 1092 Rocket - Orbit

View from above orbital plane
View from above orbital plane
View from above satellite
View from above satellite

Ground track
Ground track

The orbit data is extracted from the following two-line orbital elements,

1 11327U 79030B   14258.77551331  .00000061  00000-0  45663-4 0  8337
2 11327 082.9511 322.3835 0029129 114.1058 025.7640 13.76941733780778
Epoch (UTC): 15 September 2014 18:36:44
Eccentricity: 0.0029129
inclination: 82.9511°
perigee height: 953 km
apogee height: 996 km
right ascension of ascending node: 322.3835°
argument of perigee: 114.1058°
revolutions per day: 13.76941733
mean anomaly at epoch: 25.7640°
orbit number at epoch: 78077

The dashed part of the orbit path shows where the satellite is in the earth's shadow,  

DLR